PRIVATE WETTERSTATION BILLIGHEIM-ALLFELD                       ZURCK
Wetterdaten: Freitag, 26.09.2014
Datum Zeit Temp. A. Temp. A. min Temp. A. max Feuchte A. Luftdruck Regen Wind Richtung Richtung Sonnenschein ET Solar Taupunkt Windchill Windben Empfang
26.09.2014 00:00 11,9 C 11,8 C 11,9 C 88 % 1022,7 hPa 0,0 l/m 3,2 km/h (1 Bft) W-NW 292 0 min 0,000 mm 0 W/m 10,0 C 11,9 C 11,3 km/h (2 Bft) 100 %
26.09.2014 00:10 11,9 C 11,9 C 11,9 C 88 % 1022,7 hPa 0,0 l/m 1,6 km/h (1 Bft) W 270 0 min 0,000 mm 0 W/m 10,0 C 11,9 C 8,0 km/h (2 Bft) 100 %
26.09.2014 00:20 12,0 C 11,9 C 12,0 C 88 % 1022,8 hPa 0,0 l/m 1,6 km/h (1 Bft) W 270 0 min 0,000 mm 0 W/m 10,1 C 12,0 C 9,7 km/h (2 Bft) 100 %
26.09.2014 00:30 12,0 C 12,0 C 12,0 C 88 % 1022,9 hPa 0,0 l/m 1,6 km/h (1 Bft) W 270 0 min 0,000 mm 0 W/m 10,1 C 12,0 C 8,0 km/h (2 Bft) 100 %
26.09.2014 00:40 12,1 C 12,0 C 12,1 C 87 % 1023,1 hPa 0,0 l/m 1,6 km/h (1 Bft) W-NW 292 0 min 0,000 mm 0 W/m 10,0 C 12,1 C 8,0 km/h (2 Bft) 100 %
26.09.2014 00:50 12,1 C 12,1 C 12,1 C 88 % 1023,1 hPa 0,0 l/m 1,6 km/h (1 Bft) W 270 0 min 0,000 mm 0 W/m 10,2 C 12,1 C 8,0 km/h (2 Bft) 100 %
26.09.2014 01:00 12,0 C 12,0 C 12,1 C 88 % 1023,1 hPa 0,0 l/m 1,6 km/h (1 Bft) W-SW 247 0 min 0,000 mm 0 W/m 10,1 C 12,0 C 6,4 km/h (2 Bft) 100 %
26.09.2014 01:10 11,9 C 11,9 C 12,0 C 88 % 1023,2 hPa 0,0 l/m 0,0 km/h (0 Bft) W 270 0 min 0,000 mm 0 W/m 10,0 C 11,9 C 3,2 km/h (1 Bft) 100 %
26.09.2014 01:20 11,9 C 11,9 C 12,0 C 88 % 1023,2 hPa 0,0 l/m 0,0 km/h (0 Bft) W-NW 292 0 min 0,000 mm 0 W/m 10,0 C 11,9 C 4,8 km/h (1 Bft) 100 %
26.09.2014 01:30 11,9 C 11,9 C 11,9 C 88 % 1023,2 hPa 0,0 l/m 0,0 km/h (0 Bft) W-NW 292 0 min 0,000 mm 0 W/m 10,0 C 11,9 C 4,8 km/h (1 Bft) 100 %
26.09.2014 01:40 11,8 C 11,8 C 11,9 C 88 % 1023,2 hPa 0,0 l/m 0,0 km/h (0 Bft) W-NW 292 0 min 0,000 mm 0 W/m 9,9 C 11,8 C 4,8 km/h (1 Bft) 100 %
26.09.2014 01:50 11,8 C 11,8 C 11,8 C 88 % 1023,4 hPa 0,0 l/m 0,0 km/h (0 Bft) W-NW 292 0 min 0,000 mm 0 W/m 9,9 C 11,8 C 4,8 km/h (1 Bft) 100 %
26.09.2014 02:00 11,7 C 11,7 C 11,8 C 88 % 1023,5 hPa 0,0 l/m 0,0 km/h (0 Bft) W-NW 292 0 min 0,000 mm 0 W/m 9,8 C 11,7 C 1,6 km/h (1 Bft) 100 %
26.09.2014 02:10 11,7 C 11,7 C 11,7 C 89 % 1023,5 hPa 0,0 l/m 0,0 km/h (0 Bft) W-NW 292 0 min 0,000 mm 0 W/m 9,9 C 11,7 C 3,2 km/h (1 Bft) 100 %
26.09.2014 02:20 11,6 C 11,6 C 11,7 C 89 % 1023,4 hPa 0,0 l/m 0,0 km/h (0 Bft) W-NW 292 0 min 0,000 mm 0 W/m 9,8 C 11,6 C 1,6 km/h (1 Bft) 100 %
26.09.2014 02:30 11,6 C 11,5 C 11,6 C 89 % 1023,4 hPa 0,0 l/m 0,0 km/h (0 Bft) N 0 0 min 0,000 mm 0 W/m 9,8 C 11,6 C 0,0 km/h (0 Bft) 100 %
26.09.2014 02:40 11,4 C 11,4 C 11,6 C 89 % 1023,4 hPa 0,0 l/m 0,0 km/h (0 Bft) W-NW 292 0 min 0,000 mm 0 W/m 9,7 C 11,4 C 3,2 km/h (1 Bft) 100 %
26.09.2014 02:50 11,4 C 11,4 C 11,4 C 89 % 1023,4 hPa 0,0 l/m 0,0 km/h (0 Bft) SW 225 0 min 0,000 mm 0 W/m 9,7 C 11,4 C 4,8 km/h (1 Bft) 100 %
26.09.2014 03:00 11,4 C 11,4 C 11,4 C 89 % 1023,4 hPa 0,0 l/m 0,0 km/h (0 Bft) SW 225 0 min 0,000 mm 0 W/m 9,7 C 11,4 C 4,8 km/h (1 Bft) 100 %
26.09.2014 03:10 11,4 C 11,4 C 11,4 C 89 % 1023,3 hPa 0,0 l/m 0,0 km/h (0 Bft) N 0 0 min 0,000 mm 0 W/m 9,7 C 11,4 C 0,0 km/h (0 Bft) 100 %
26.09.2014 03:20 11,3 C 11,3 C 11,4 C 90 % 1023,2 hPa 0,0 l/m 0,0 km/h (0 Bft) W-SW 247 0 min 0,000 mm 0 W/m 9,7 C 11,3 C 3,2 km/h (1 Bft) 100 %
26.09.2014 03:30 11,3 C 11,3 C 11,3 C 90 % 1023,1 hPa 0,0 l/m 0,0 km/h (0 Bft) W-SW 247 0 min 0,000 mm 0 W/m 9,7 C 11,3 C 1,6 km/h (1 Bft) 100 %
26.09.2014 03:40 11,2 C 11,2 C 11,3 C 90 % 1023,1 hPa 0,0 l/m 0,0 km/h (0 Bft) W-SW 247 0 min 0,000 mm 0 W/m 9,6 C 11,2 C 1,6 km/h (1 Bft) 100 %
26.09.2014 03:50 11,2 C 11,2 C 11,2 C 90 % 1023,2 hPa 0,0 l/m 0,0 km/h (0 Bft) N 0 0 min 0,000 mm 0 W/m 9,6 C 11,2 C 0,0 km/h (0 Bft) 100 %
26.09.2014 04:00 11,1 C 11,1 C 11,2 C 90 % 1023,1 hPa 0,0 l/m 0,0 km/h (0 Bft) W-SW 247 0 min 0,000 mm 0 W/m 9,5 C 11,1 C 3,2 km/h (1 Bft) 100 %
26.09.2014 04:10 11,0 C 11,0 C 11,1 C 90 % 1023,1 hPa 0,0 l/m 0,0 km/h (0 Bft) W-SW 247 0 min 0,000 mm 0 W/m 9,4 C 11,0 C 3,2 km/h (1 Bft) 100 %
26.09.2014 04:20 10,9 C 10,9 C 11,0 C 90 % 1023,1 hPa 0,0 l/m 0,0 km/h (0 Bft) SO 135 0 min 0,000 mm 0 W/m 9,3 C 10,9 C 4,8 km/h (1 Bft) 99 %
26.09.2014 04:30 11,0 C 10,9 C 11,0 C 90 % 1023,1 hPa 0,0 l/m 1,6 km/h (1 Bft) SO 135 0 min 0,000 mm 0 W/m 9,4 C 11,0 C 6,4 km/h (2 Bft) 100 %
26.09.2014 04:40 11,0 C 11,0 C 11,0 C 90 % 1023,1 hPa 0,0 l/m 0,0 km/h (0 Bft) SO 135 0 min 0,000 mm 0 W/m 9,4 C 11,0 C 1,6 km/h (1 Bft) 100 %
26.09.2014 04:50 11,0 C 11,0 C 11,1 C 90 % 1023,0 hPa 0,0 l/m 0,0 km/h (0 Bft) SO 135 0 min 0,000 mm 0 W/m 9,4 C 11,0 C 3,2 km/h (1 Bft) 100 %
26.09.2014 05:00 11,1 C 11,0 C 11,1 C 90 % 1023,0 hPa 0,0 l/m 0,0 km/h (0 Bft) SO 135 0 min 0,000 mm 0 W/m 9,5 C 11,1 C 1,6 km/h (1 Bft) 100 %
26.09.2014 05:10 11,1 C 11,1 C 11,1 C 90 % 1023,0 hPa 0,0 l/m 0,0 km/h (0 Bft) S-SO 157 0 min 0,000 mm 0 W/m 9,5 C 11,1 C 1,6 km/h (1 Bft) 100 %
26.09.2014 05:20 11,0 C 11,0 C 11,1 C 90 % 1023,1 hPa 0,0 l/m 0,0 km/h (0 Bft) N 0 0 min 0,000 mm 0 W/m 9,4 C 11,0 C 0,0 km/h (0 Bft) 100 %
26.09.2014 05:30 10,9 C 10,9 C 11,0 C 90 % 1023,1 hPa 0,0 l/m 0,0 km/h (0 Bft) S-SO 157 0 min 0,000 mm 0 W/m 9,3 C 10,9 C 1,6 km/h (1 Bft) 100 %
26.09.2014 05:40 11,0 C 10,9 C 11,0 C 90 % 1023,3 hPa 0,0 l/m 0,0 km/h (0 Bft) N 0 0 min 0,000 mm 0 W/m 9,4 C 11,0 C 0,0 km/h (0 Bft) 100 %
26.09.2014 05:50 11,0 C 10,9 C 11,0 C 90 % 1023,2 hPa 0,0 l/m 0,0 km/h (0 Bft) N 0 0 min 0,000 mm 0 W/m 9,4 C 11,0 C 0,0 km/h (0 Bft) 100 %
26.09.2014 06:00 10,9 C 10,9 C 11,0 C 90 % 1023,3 hPa 0,0 l/m 0,0 km/h (0 Bft) S-SO 157 0 min 0,000 mm 0 W/m 9,3 C 10,9 C 3,2 km/h (1 Bft) 100 %
26.09.2014 06:10 10,9 C 10,9 C 11,0 C 90 % 1023,3 hPa 0,0 l/m 0,0 km/h (0 Bft) S-SO 157 0 min 0,000 mm 0 W/m 9,3 C 10,9 C 3,2 km/h (1 Bft) 100 %
26.09.2014 06:20 10,9 C 10,9 C 11,0 C 90 % 1023,3 hPa 0,0 l/m 0,0 km/h (0 Bft) N 0 0 min 0,000 mm 0 W/m 9,3 C 10,9 C 0,0 km/h (0 Bft) 100 %
26.09.2014 06:30 11,0 C 10,9 C 11,0 C 90 % 1023,3 hPa 0,0 l/m 0,0 km/h (0 Bft) S-SO 157 0 min 0,000 mm 0 W/m 9,4 C 11,0 C 3,2 km/h (1 Bft) 100 %
26.09.2014 06:40 10,9 C 10,9 C 11,0 C 90 % 1023,3 hPa 0,0 l/m 0,0 km/h (0 Bft) S-SO 157 0 min 0,000 mm 0 W/m 9,3 C 10,9 C 4,8 km/h (1 Bft) 100 %
26.09.2014 06:50 10,9 C 10,9 C 10,9 C 90 % 1023,4 hPa 0,0 l/m 0,0 km/h (0 Bft) S 180 0 min 0,000 mm 0 W/m 9,3 C 10,9 C 6,4 km/h (2 Bft) 100 %
26.09.2014 07:00 10,9 C 10,9 C 10,9 C 90 % 1023,5 hPa 0,0 l/m 0,0 km/h (0 Bft) SW 225 0 min 0,000 mm 0 W/m 9,3 C 10,9 C 4,8 km/h (1 Bft) 100 %
26.09.2014 07:10 10,9 C 10,9 C 10,9 C 90 % 1023,5 hPa 0,0 l/m 0,0 km/h (0 Bft) N 0 0 min 0,000 mm 0 W/m 9,3 C 10,9 C 0,0 km/h (0 Bft) 100 %
26.09.2014 07:20 10,9 C 10,9 C 10,9 C 90 % 1023,5 hPa 0,0 l/m 0,0 km/h (0 Bft) SW 225 0 min 0,000 mm 0 W/m 9,3 C 10,9 C 3,2 km/h (1 Bft) 100 %
26.09.2014 07:30 10,9 C 10,9 C 10,9 C 90 % 1023,4 hPa 0,0 l/m 0,0 km/h (0 Bft) SW 225 0 min 0,000 mm 5 W/m 9,3 C 10,9 C 4,8 km/h (1 Bft) 100 %
26.09.2014 07:40 10,8 C 10,8 C 10,9 C 90 % 1023,4 hPa 0,0 l/m 0,0 km/h (0 Bft) SW 225 0 min 0,000 mm 14 W/m 9,2 C 10,8 C 4,8 km/h (1 Bft) 100 %
26.09.2014 07:50 10,8 C 10,8 C 10,9 C 90 % 1023,4 hPa 0,0 l/m 1,6 km/h (1 Bft) SW 225 0 min 0,000 mm 18 W/m 9,2 C 10,8 C 6,4 km/h (2 Bft) 100 %
26.09.2014 08:00 10,8 C 10,8 C 10,8 C 90 % 1023,5 hPa 0,0 l/m 1,6 km/h (1 Bft) W-SW 247 0 min 0,000 mm 28 W/m 9,2 C 10,8 C 6,4 km/h (2 Bft) 100 %
26.09.2014 08:10 10,9 C 10,8 C 10,9 C 90 % 1023,5 hPa 0,0 l/m 1,6 km/h (1 Bft) W-SW 247 0 min 0,000 mm 40 W/m 9,3 C 10,9 C 6,4 km/h (2 Bft) 100 %
26.09.2014 08:20 11,0 C 10,9 C 11,0 C 90 % 1023,6 hPa 0,0 l/m 3,2 km/h (1 Bft) W 270 0 min 0,000 mm 47 W/m 9,4 C 11,0 C 8,0 km/h (2 Bft) 100 %
26.09.2014 08:30 11,1 C 11,0 C 11,1 C 90 % 1023,7 hPa 0,0 l/m 0,0 km/h (0 Bft) W-SW 247 0 min 0,000 mm 72 W/m 9,5 C 11,1 C 4,8 km/h (1 Bft) 100 %
26.09.2014 08:40 11,3 C 11,1 C 11,3 C 90 % 1023,9 hPa 0,0 l/m 1,6 km/h (1 Bft) W 270 0 min 0,000 mm 146 W/m 9,7 C 11,3 C 8,0 km/h (2 Bft) 100 %
26.09.2014 08:50 11,6 C 11,3 C 11,6 C 89 % 1024,0 hPa 0,0 l/m 1,6 km/h (1 Bft) W-NW 292 0 min 0,000 mm 151 W/m 9,8 C 11,6 C 9,7 km/h (2 Bft) 100 %
26.09.2014 09:00 11,7 C 11,7 C 11,7 C 88 % 1024,1 hPa 0,0 l/m 6,4 km/h (2 Bft) W 270 0 min 0,025 mm 81 W/m 9,8 C 11,7 C 16,1 km/h (3 Bft) 100 %
26.09.2014 09:10 11,6 C 11,6 C 11,7 C 88 % 1024,2 hPa 0,0 l/m 6,4 km/h (2 Bft) W-SW 247 0 min 0,000 mm 105 W/m 9,7 C 11,6 C 14,5 km/h (3 Bft) 100 %
26.09.2014 09:20 11,7 C 11,6 C 11,7 C 88 % 1024,3 hPa 0,0 l/m 6,4 km/h (2 Bft) W 270 10 min 0,000 mm 251 W/m 9,8 C 11,7 C 16,1 km/h (3 Bft) 100 %
26.09.2014 09:30 12,1 C 11,7 C 12,1 C 89 % 1024,4 hPa 0,0 l/m 3,2 km/h (1 Bft) W 270 10 min 0,000 mm 299 W/m 10,3 C 12,1 C 9,7 km/h (2 Bft) 100 %
26.09.2014 09:40 12,7 C 12,1 C 12,7 C 87 % 1024,6 hPa 0,0 l/m 4,8 km/h (1 Bft) W 270 10 min 0,000 mm 329 W/m 10,6 C 12,7 C 11,3 km/h (2 Bft) 100 %
26.09.2014 09:50 13,1 C 12,7 C 13,1 C 86 % 1024,7 hPa 0,0 l/m 6,4 km/h (2 Bft) W-SW 247 10 min 0,000 mm 432 W/m 10,8 C 13,1 C 16,1 km/h (3 Bft) 100 %
26.09.2014 10:00 13,9 C 13,1 C 13,9 C 84 % 1024,7 hPa 0,0 l/m 4,8 km/h (1 Bft) W-SW 247 10 min 0,127 mm 425 W/m 11,2 C 13,9 C 16,1 km/h (3 Bft) 100 %
26.09.2014 10:10 14,3 C 14,0 C 14,3 C 81 % 1024,8 hPa 0,0 l/m 8,0 km/h (2 Bft) SW 225 10 min 0,000 mm 429 W/m 11,1 C 13,4 C 19,3 km/h (3 Bft) 100 %
26.09.2014 10:20 14,7 C 14,3 C 14,7 C 81 % 1024,8 hPa 0,0 l/m 8,0 km/h (2 Bft) SW 225 10 min 0,000 mm 450 W/m 11,5 C 13,8 C 20,9 km/h (4 Bft) 100 %
26.09.2014 10:30 15,0 C 14,7 C 15,0 C 79 % 1024,9 hPa 0,0 l/m 8,0 km/h (2 Bft) W-SW 247 10 min 0,000 mm 578 W/m 11,4 C 14,1 C 19,3 km/h (3 Bft) 90 %
26.09.2014 10:40 14,8 C 14,8 C 15,1 C 79 % 1024,9 hPa 0,0 l/m 8,0 km/h (2 Bft) W-SW 247 10 min 0,000 mm 330 W/m 11,2 C 13,9 C 22,5 km/h (4 Bft) 100 %
26.09.2014 10:50 14,5 C 14,5 C 14,8 C 80 % 1024,7 hPa 0,0 l/m 6,4 km/h (2 Bft) W 270 10 min 0,000 mm 285 W/m 11,1 C 14,5 C 17,7 km/h (3 Bft) 100 %
26.09.2014 11:00 14,5 C 14,4 C 14,6 C 82 % 1024,7 hPa 0,0 l/m 3,2 km/h (1 Bft) W 270 10 min 0,203 mm 251 W/m 11,5 C 14,5 C 9,7 km/h (2 Bft) 100 %
26.09.2014 11:10 14,6 C 14,5 C 14,6 C 81 % 1024,8 hPa 0,0 l/m 4,8 km/h (1 Bft) W-SW 247 10 min 0,000 mm 232 W/m 11,4 C 14,6 C 14,5 km/h (3 Bft) 100 %
26.09.2014 11:20 14,5 C 14,5 C 14,6 C 80 % 1024,9 hPa 0,0 l/m 6,4 km/h (2 Bft) W-SW 247 10 min 0,000 mm 241 W/m 11,1 C 14,5 C 20,9 km/h (4 Bft) 99 %
26.09.2014 11:30 15,1 C 14,5 C 15,1 C 80 % 1024,9 hPa 0,0 l/m 8,0 km/h (2 Bft) W-SW 247 10 min 0,000 mm 570 W/m 11,7 C 14,2 C 17,7 km/h (3 Bft) 100 %
26.09.2014 11:40 15,6 C 15,1 C 15,6 C 79 % 1024,8 hPa 0,0 l/m 6,4 km/h (2 Bft) W-SW 247 10 min 0,000 mm 494 W/m 12,0 C 15,6 C 19,3 km/h (3 Bft) 100 %
26.09.2014 11:50 15,8 C 15,6 C 15,8 C 77 % 1024,8 hPa 0,0 l/m 6,4 km/h (2 Bft) W 270 10 min 0,000 mm 446 W/m 11,8 C 15,8 C 14,5 km/h (3 Bft) 100 %
26.09.2014 12:00 15,8 C 15,8 C 15,9 C 75 % 1024,8 hPa 0,0 l/m 8,0 km/h (2 Bft) W 270 10 min 0,203 mm 350 W/m 11,4 C 14,9 C 16,1 km/h (3 Bft) 100 %
26.09.2014 12:10 15,7 C 15,7 C 15,8 C 78 % 1024,8 hPa 0,0 l/m 8,0 km/h (2 Bft) S-SW 202 10 min 0,000 mm 401 W/m 11,9 C 14,8 C 16,1 km/h (3 Bft) 100 %
26.09.2014 12:20 15,9 C 15,7 C 15,9 C 78 % 1024,8 hPa 0,0 l/m 6,4 km/h (2 Bft) W 270 10 min 0,000 mm 756 W/m 12,1 C 15,9 C 17,7 km/h (3 Bft) 100 %
26.09.2014 12:30 16,1 C 15,9 C 16,1 C 77 % 1024,8 hPa 0,0 l/m 9,7 km/h (2 Bft) W-SW 247 10 min 0,000 mm 779 W/m 12,1 C 14,5 C 19,3 km/h (3 Bft) 99 %
26.09.2014 12:40 16,7 C 16,1 C 16,7 C 75 % 1024,7 hPa 0,0 l/m 8,0 km/h (2 Bft) SW 225 10 min 0,000 mm 722 W/m 12,2 C 15,9 C 22,5 km/h (4 Bft) 100 %
26.09.2014 12:50 17,0 C 16,7 C 17,0 C 71 % 1024,7 hPa 0,0 l/m 9,7 km/h (2 Bft) W-SW 247 10 min 0,000 mm 721 W/m 11,7 C 15,4 C 19,3 km/h (3 Bft) 100 %
26.09.2014 13:00 16,8 C 16,8 C 17,0 C 71 % 1024,7 hPa 0,0 l/m 8,0 km/h (2 Bft) W 270 10 min 0,305 mm 677 W/m 11,5 C 16,0 C 17,7 km/h (3 Bft) 100 %
26.09.2014 13:10 16,9 C 16,8 C 16,9 C 69 % 1024,7 hPa 0,0 l/m 8,0 km/h (2 Bft) W-SW 247 10 min 0,000 mm 657 W/m 11,2 C 16,1 C 19,3 km/h (3 Bft) 100 %
26.09.2014 13:20 17,3 C 16,9 C 17,3 C 69 % 1024,7 hPa 0,0 l/m 6,4 km/h (2 Bft) W 270 10 min 0,000 mm 715 W/m 11,6 C 17,3 C 17,7 km/h (3 Bft) 100 %
26.09.2014 13:30 17,5 C 17,3 C 17,5 C 68 % 1024,8 hPa 0,0 l/m 9,7 km/h (2 Bft) W-NW 292 10 min 0,000 mm 721 W/m 11,5 C 16,0 C 24,1 km/h (4 Bft) 100 %
26.09.2014 13:40 17,4 C 17,4 C 17,5 C 68 % 1024,7 hPa 0,0 l/m 3,2 km/h (1 Bft) W-SW 247 10 min 0,000 mm 686 W/m 11,4 C 17,4 C 11,3 km/h (2 Bft) 100 %
26.09.2014 13:50 17,8 C 17,4 C 17,8 C 69 % 1024,5 hPa 0,0 l/m 6,4 km/h (2 Bft) W-NW 292 10 min 0,000 mm 728 W/m 12,0 C 17,8 C 16,1 km/h (3 Bft) 100 %
26.09.2014 14:00 18,2 C 17,8 C 18,2 C 66 % 1024,4 hPa 0,0 l/m 6,4 km/h (2 Bft) NW 315 10 min 0,381 mm 679 W/m 11,7 C 18,2 C 17,7 km/h (3 Bft) 100 %
26.09.2014 14:10 18,3 C 18,2 C 18,3 C 66 % 1024,2 hPa 0,0 l/m 3,2 km/h (1 Bft) W 270 10 min 0,000 mm 652 W/m 11,8 C 18,3 C 11,3 km/h (2 Bft) 100 %
26.09.2014 14:20 18,3 C 18,3 C 18,4 C 65 % 1024,2 hPa 0,0 l/m 6,4 km/h (2 Bft) W-SW 247 10 min 0,000 mm 615 W/m 11,6 C 18,3 C 22,5 km/h (4 Bft) 100 %
26.09.2014 14:30 18,3 C 18,2 C 18,3 C 67 % 1024,0 hPa 0,0 l/m 8,0 km/h (2 Bft) W-SW 247 10 min 0,000 mm 601 W/m 12,1 C 17,6 C 24,1 km/h (4 Bft) 100 %
26.09.2014 14:40 18,3 C 18,2 C 18,3 C 63 % 1024,1 hPa 0,0 l/m 8,0 km/h (2 Bft) W 270 10 min 0,000 mm 594 W/m 11,1 C 17,6 C 20,9 km/h (4 Bft) 100 %
26.09.2014 14:50 18,3 C 18,3 C 18,4 C 63 % 1024,1 hPa 0,0 l/m 9,7 km/h (2 Bft) W-SW 247 10 min 0,000 mm 589 W/m 11,1 C 16,9 C 20,9 km/h (4 Bft) 99 %
26.09.2014 15:00 18,2 C 18,2 C 18,3 C 65 % 1024,1 hPa 0,0 l/m 6,4 km/h (2 Bft) W-NW 292 10 min 0,330 mm 580 W/m 11,5 C 18,2 C 16,1 km/h (3 Bft) 100 %
26.09.2014 15:10 18,3 C 18,2 C 18,3 C 66 % 1024,0 hPa 0,0 l/m 6,4 km/h (2 Bft) W 270 10 min 0,000 mm 526 W/m 11,8 C 18,3 C 17,7 km/h (3 Bft) 99 %
26.09.2014 15:20 18,3 C 18,3 C 18,3 C 66 % 1023,9 hPa 0,0 l/m 4,8 km/h (1 Bft) W-SW 247 10 min 0,000 mm 461 W/m 11,8 C 18,3 C 11,3 km/h (2 Bft) 100 %
26.09.2014 15:30 18,3 C 18,3 C 18,3 C 66 % 1023,9 hPa 0,0 l/m 6,4 km/h (2 Bft) W-SW 247 10 min 0,000 mm 478 W/m 11,8 C 18,3 C 17,7 km/h (3 Bft) 100 %
26.09.2014 15:40 18,5 C 18,3 C 18,5 C 64 % 1024,0 hPa 0,0 l/m 4,8 km/h (1 Bft) W-SW 247 10 min 0,000 mm 497 W/m 11,6 C 18,5 C 12,9 km/h (3 Bft) 100 %
26.09.2014 15:50 18,6 C 18,6 C 18,6 C 63 % 1024,0 hPa 0,0 l/m 6,4 km/h (2 Bft) W 270 10 min 0,000 mm 432 W/m 11,4 C 18,6 C 17,7 km/h (3 Bft) 100 %
26.09.2014 16:00 18,7 C 18,6 C 18,7 C 66 % 1023,9 hPa 0,0 l/m 4,8 km/h (1 Bft) SW 225 10 min 0,229 mm 364 W/m 12,2 C 18,7 C 16,1 km/h (3 Bft) 100 %
26.09.2014 16:10 18,7 C 18,7 C 18,7 C 63 % 1023,8 hPa 0,0 l/m 8,0 km/h (2 Bft) W-SW 247 0 min 0,000 mm 67 W/m 11,5 C 18,0 C 17,7 km/h (3 Bft) 100 %
26.09.2014 16:20 18,6 C 18,6 C 18,7 C 63 % 1023,7 hPa 0,0 l/m 4,8 km/h (1 Bft) W 270 0 min 0,000 mm 76 W/m 11,4 C 18,6 C 14,5 km/h (3 Bft) 100 %
26.09.2014 16:30 18,7 C 18,6 C 18,7 C 65 % 1023,9 hPa 0,0 l/m 6,4 km/h (2 Bft) W 270 0 min 0,000 mm 83 W/m 12,0 C 18,7 C 16,1 km/h (3 Bft) 100 %
26.09.2014 16:40 18,6 C 18,6 C 18,7 C 64 % 1023,9 hPa 0,0 l/m 5,5 km/h (1 Bft) S-SW 198 0 min 0,000 mm 76 W/m 11,7 C 18,6 C 11,3 km/h (2 Bft) 100 %
26.09.2014 16:50 18,3 C 18,3 C 18,6 C 65 % 1024,0 hPa 0,0 l/m 7,2 km/h (2 Bft) W-SW 242 0 min 0,000 mm 63 W/m 11,6 C 17,9 C 17,7 km/h (3 Bft) 100 %
26.09.2014 17:00 18,2 C 18,2 C 18,3 C 63 % 1024,1 hPa 0,0 l/m 4,7 km/h (1 Bft) NW 304 0 min 0,077 mm 62 W/m 11,0 C 18,2 C 11,3 km/h (2 Bft) 100 %
26.09.2014 17:10 18,2 C 18,2 C 18,2 C 66 % 1023,9 hPa 0,0 l/m 5,3 km/h (1 Bft) W-SW 257 0 min 0,000 mm 56 W/m 11,7 C 18,2 C 14,5 km/h (3 Bft) 100 %
26.09.2014 17:20 18,1 C 18,1 C 18,2 C 67 % 1024,0 hPa 0,0 l/m 4,5 km/h (1 Bft) W 259 0 min 0,000 mm 51 W/m 11,9 C 18,1 C 16,1 km/h (3 Bft) 100 %
26.09.2014 17:30 18,0 C 18,0 C 18,1 C 67 % 1024,0 hPa 0,0 l/m 3,8 km/h (1 Bft) W-SW 258 0 min 0,000 mm 47 W/m 11,8 C 18,0 C 11,3 km/h (2 Bft) 100 %
26.09.2014 17:40 17,9 C 17,9 C 18,0 C 67 % 1024,0 hPa 0,0 l/m 2,9 km/h (1 Bft) W 280 0 min 0,000 mm 44 W/m 11,7 C 17,9 C 11,3 km/h (2 Bft) 100 %
26.09.2014 17:50 17,8 C 17,8 C 17,9 C 69 % 1024,0 hPa 0,0 l/m 2,1 km/h (1 Bft) S-SW 213 0 min 0,000 mm 39 W/m 12,0 C 17,8 C 11,3 km/h (2 Bft) 100 %
26.09.2014 18:00 17,6 C 17,6 C 17,8 C 69 % 1023,9 hPa 0,0 l/m 3,2 km/h (1 Bft) W-SW 253 0 min 0,050 mm 33 W/m 11,8 C 17,6 C 9,7 km/h (2 Bft) 100 %
26.09.2014 18:10 17,4 C 17,4 C 17,6 C 70 % 1023,9 hPa 0,0 l/m 1,3 km/h (1 Bft) W-SW 253 0 min 0,000 mm 33 W/m 11,9 C 17,4 C 8,0 km/h (2 Bft) 100 %
26.09.2014 18:20 17,3 C 17,3 C 17,4 C 70 % 1024,0 hPa 0,0 l/m 1,2 km/h (1 Bft) SW 232 0 min 0,000 mm 32 W/m 11,8 C 17,3 C 8,0 km/h (2 Bft) 100 %
26.09.2014 18:30 17,1 C 17,1 C 17,3 C 71 % 1023,9 hPa 0,0 l/m 0,3 km/h (0 Bft) SW 232 0 min 0,000 mm 25 W/m 11,8 C 17,1 C 6,4 km/h (2 Bft) 100 %
26.09.2014 18:40 16,9 C 16,9 C 17,1 C 73 % 1024,1 hPa 0,0 l/m 0,0 km/h (0 Bft) SW 232 0 min 0,000 mm 14 W/m 12,0 C 16,9 C 1,6 km/h (1 Bft) 100 %
26.09.2014 18:50 16,6 C 16,6 C 16,9 C 76 % 1024,1 hPa 0,0 l/m 0,0 km/h (0 Bft) SW 232 0 min 0,000 mm 11 W/m 12,3 C 16,6 C 0,0 km/h (0 Bft) 100 %
26.09.2014 19:00 16,1 C 16,1 C 16,6 C 77 % 1024,1 hPa 0,0 l/m 0,0 km/h (0 Bft) SW 232 0 min 0,026 mm 9 W/m 12,1 C 16,1 C 1,6 km/h (1 Bft) 100 %
26.09.2014 19:10 15,8 C 15,8 C 16,1 C 78 % 1024,2 hPa 0,0 l/m 0,0 km/h (0 Bft) SW 232 0 min 0,000 mm 0 W/m 12,0 C 15,8 C 0,0 km/h (0 Bft) 99 %
26.09.2014 19:20 15,6 C 15,6 C 15,8 C 80 % 1024,2 hPa 0,0 l/m 0,3 km/h (0 Bft) SW 232 0 min 0,000 mm 0 W/m 12,2 C 15,6 C 3,2 km/h (1 Bft) 100 %
26.09.2014 19:30 15,3 C 15,3 C 15,6 C 80 % 1024,1 hPa 0,0 l/m 0,0 km/h (0 Bft) SW 232 0 min 0,000 mm 0 W/m 11,9 C 15,3 C 1,6 km/h (1 Bft) 99 %
26.09.2014 19:40 15,2 C 15,2 C 15,3 C 80 % 1024,1 hPa 0,0 l/m 0,0 km/h (0 Bft) SW 232 0 min 0,000 mm 0 W/m 11,8 C 15,2 C 1,6 km/h (1 Bft) 100 %
26.09.2014 19:50 15,1 C 15,1 C 15,2 C 80 % 1024,1 hPa 0,0 l/m 0,0 km/h (0 Bft) SW 232 0 min 0,000 mm 0 W/m 11,7 C 15,1 C 0,0 km/h (0 Bft) 100 %
26.09.2014 20:00 15,1 C 15,1 C 15,1 C 82 % 1024,4 hPa 0,0 l/m 0,0 km/h (0 Bft) SW 232 0 min 0,000 mm 0 W/m 12,0 C 15,1 C 0,0 km/h (0 Bft) 100 %
26.09.2014 20:10 14,9 C 14,9 C 15,1 C 82 % 1024,6 hPa 0,0 l/m 0,0 km/h (0 Bft) SW 232 0 min 0,000 mm 0 W/m 11,9 C 14,9 C 1,6 km/h (1 Bft) 100 %
26.09.2014 20:20 14,9 C 14,9 C 14,9 C 83 % 1024,7 hPa 0,0 l/m 0,0 km/h (0 Bft) SW 232 0 min 0,000 mm 0 W/m 12,0 C 14,9 C 0,0 km/h (0 Bft) 100 %
26.09.2014 20:30 14,9 C 14,9 C 14,9 C 83 % 1024,9 hPa 0,0 l/m 0,0 km/h (0 Bft) SW 232 0 min 0,000 mm 0 W/m 12,0 C 14,9 C 1,6 km/h (1 Bft) 100 %
26.09.2014 20:40 14,8 C 14,8 C 14,9 C 83 % 1024,9 hPa 0,0 l/m 0,0 km/h (0 Bft) SW 232 0 min 0,000 mm 0 W/m 11,9 C 14,8 C 0,0 km/h (0 Bft) 100 %
26.09.2014 20:50 14,8 C 14,8 C 14,8 C 82 % 1024,9 hPa 0,0 l/m 0,0 km/h (0 Bft) SW 232 0 min 0,000 mm 0 W/m 11,8 C 14,8 C 1,6 km/h (1 Bft) 100 %
26.09.2014 21:00 14,9 C 14,8 C 14,9 C 82 % 1024,9 hPa 0,0 l/m 0,0 km/h (0 Bft) SW 232 0 min 0,025 mm 0 W/m 11,9 C 14,9 C 1,6 km/h (1 Bft) 100 %
26.09.2014 21:10 14,9 C 14,9 C 14,9 C 82 % 1025,0 hPa 0,0 l/m 0,0 km/h (0 Bft) SW 225 0 min 0,000 mm 0 W/m 11,9 C 14,9 C 1,6 km/h (1 Bft) 100 %
26.09.2014 21:20 14,9 C 14,9 C 14,9 C 82 % 1025,0 hPa 0,0 l/m 0,0 km/h (0 Bft) SW 225 0 min 0,000 mm 0 W/m 11,9 C 14,9 C 1,6 km/h (1 Bft) 99 %
26.09.2014 21:30 14,8 C 14,8 C 14,9 C 83 % 1025,2 hPa 0,0 l/m 0,0 km/h (0 Bft) SW 225 0 min 0,000 mm 0 W/m 11,9 C 14,8 C 1,6 km/h (1 Bft) 100 %
26.09.2014 21:40 14,7 C 14,7 C 14,8 C 83 % 1025,2 hPa 0,0 l/m 0,0 km/h (0 Bft) SW 225 0 min 0,000 mm 0 W/m 11,8 C 14,7 C 3,2 km/h (1 Bft) 100 %
26.09.2014 21:50 14,5 C 14,5 C 14,7 C 84 % 1025,4 hPa 0,0 l/m 1,6 km/h (1 Bft) SW 225 0 min 0,000 mm 0 W/m 11,8 C 14,5 C 3,2 km/h (1 Bft) 100 %
26.09.2014 22:00 14,5 C 14,5 C 14,5 C 85 % 1025,5 hPa 0,0 l/m 0,0 km/h (0 Bft) SW 225 0 min 0,025 mm 0 W/m 12,0 C 14,5 C 1,6 km/h (1 Bft) 100 %
26.09.2014 22:10 14,5 C 14,4 C 14,5 C 87 % 1025,5 hPa 0,0 l/m 0,0 km/h (0 Bft) N 0 0 min 0,000 mm 0 W/m 12,4 C 14,5 C 0,0 km/h (0 Bft) 100 %
26.09.2014 22:20 14,2 C 14,2 C 14,4 C 87 % 1025,4 hPa 0,0 l/m 1,6 km/h (1 Bft) SW 225 0 min 0,000 mm 0 W/m 12,1 C 14,2 C 4,8 km/h (1 Bft) 100 %
26.09.2014 22:30 14,2 C 14,2 C 14,2 C 86 % 1025,6 hPa 0,0 l/m 1,6 km/h (1 Bft) SW 225 0 min 0,000 mm 0 W/m 11,9 C 14,2 C 4,8 km/h (1 Bft) 100 %
26.09.2014 22:40 14,3 C 14,2 C 14,3 C 88 % 1025,7 hPa 0,0 l/m 0,0 km/h (0 Bft) SW 225 0 min 0,000 mm 0 W/m 12,3 C 14,3 C 4,8 km/h (1 Bft) 100 %
26.09.2014 22:50 14,2 C 14,2 C 14,3 C 88 % 1025,6 hPa 0,0 l/m 0,0 km/h (0 Bft) SW 225 0 min 0,000 mm 0 W/m 12,2 C 14,2 C 3,2 km/h (1 Bft) 100 %
26.09.2014 23:00 14,2 C 14,2 C 14,2 C 88 % 1025,6 hPa 0,0 l/m 0,0 km/h (0 Bft) N 0 0 min 0,000 mm 0 W/m 12,2 C 14,2 C 0,0 km/h (0 Bft) 99 %
26.09.2014 23:10 14,1 C 14,1 C 14,2 C 88 % 1025,7 hPa 0,0 l/m 0,0 km/h (0 Bft) N 0 0 min 0,000 mm 0 W/m 12,1 C 14,1 C 0,0 km/h (0 Bft) 100 %
26.09.2014 23:20 14,0 C 14,0 C 14,1 C 88 % 1025,8 hPa 0,0 l/m 0,0 km/h (0 Bft) SW 225 0 min 0,000 mm 0 W/m 12,0 C 14,0 C 1,6 km/h (1 Bft) 100 %
26.09.2014 23:30 14,0 C 14,0 C 14,1 C 88 % 1025,8 hPa 0,0 l/m 0,0 km/h (0 Bft) N 0 0 min 0,000 mm 0 W/m 12,0 C 14,0 C 0,0 km/h (0 Bft) 99 %
26.09.2014 23:40 14,0 C 13,9 C 14,0 C 88 % 1025,8 hPa 0,0 l/m 0,0 km/h (0 Bft) N 0 0 min 0,000 mm 0 W/m 12,0 C 14,0 C 0,0 km/h (0 Bft) 100 %
26.09.2014 23:50 14,0 C 13,9 C 14,0 C 88 % 1026,0 hPa 0,0 l/m 0,0 km/h (0 Bft) N 0 0 min 0,000 mm 0 W/m 12,0 C 14,0 C 0,0 km/h (0 Bft) 100 %
_ Min-Zeit 07:40 07:40 08:00 14:40 00:00 - 01:10 - - - - - 07:40 07:40 02:30 10:30
Minimum _ 10,8 C 10,8 C 10,8 C 63 % 1022,7 hPa - 0,0 km/h (0 Bft) - - - - - 9,2 C 10,8 C 0,0 km/h (0 Bft) 90 %
_ Max-Zeit 16:00 16:10 16:00 03:20 23:50 00:00 12:30 - - 09:20 14:00 12:30 22:10 16:30 13:30 00:00
Maximum _ 18,7 C 18,7 C 18,7 C 90 % 1026,0 hPa 0,0 l/m 9,7 km/h
W-SW (2 Bft)
- - 10 min 0,381 mm 779 W/m 12,4 C 18,7 C 24,1 km/h
W-NW (4 Bft)
100 %
Durchschnitt _ 14,2 C 14,1 C 14,3 C 81 % 1024,1 hPa #0,0 l/m 2,6 km/h (1 Bft) W-SW - #6:50 h #2,006 mm 322 W/m 10,9 C 14,1 C 8,3 km/h (2 Bft) 100 %
PRIVATE WETTERSTATION BILLIGHEIM-ALLFELD - www.neckar-odenwald-wetter.de - Holger Sonntag